Terug naar catalogus

STARLINK-37765

ActiefCommunicatieSSO
NORAD 69337·PAYLOAD·🇺🇸 United States

Gelanceerd Jun 3, 2026 vanaf Vandenberg Space Force Base

Loading…

Volgende Passages (komende 24 uur)

TLE

VersSource: CelesTrak SupGP

Epoch: Sep 14, 2026, 23:38 UTC

1 69337C 26122J   26257.98520833  .00049898  00000+0  15491-2 0  2577
2 69337  97.2837 286.6553 0001473  85.8810 230.9661 15.33411027    11

Volg STARLINK-37765 in realtime met AllMySat

Download on the App Store